Starlink 30492

operational
NORAD ID: 57921 Int'l Des: 2023-147 Owner: SPXS Country: US Constellation: starlink
LEOCIRCULAR

Starlink 30492について

説明を読み込み中...

リアルタイム位置

3D地球を読み込み中...

次回通過

高度履歴

Altitude vs Time

uPlot chart will show altitude changes over time

軌道要素

1 57921U 23147J 25354.49371514 .00000318 00000-0 38598-4 0 9993
2 57921 43.0045 36.4830 0001527 274.4505 85.6163 15.02532329124679
Epoch: Dec 20, 2025 • Age: 12 hours

現在のステータス

高度 558.8 km
速度 7.58 km/s
衛星直下点 16.59°N, 109.89°E
打ち上げ日 Sep 24, 2023
運用期間 2.2 years
タイプ internet

技術仕様

分類 Payload
質量 730.00 kg
乾燥質量 700.00 kg
総質量 730.00 kg
長さ 0.30 m
直径 4.10 m
スパン 29.00 m
形状 Box + pan
製造者 SPXS
バスタイプ Starlink V2M
フェーズステータス In Orbit
所有者/国 SPXS/US

大規模コンステレーション

Loading constellations...